STARLINK-35985 (66815 NORAD) Tracking and Keplerian Element Data

This shows tracking and keplerian element data for the satellite.

Feedback or suggestion? Click here.




ElementValue
Catalog66815
NameSTARLINK-35985
Epoch Orbit425
Epoch Day354.25003472
Epoch Year2025
RAAN206.3458
Inclination42.999
Eccentricity0.0001465
Argument of Perigee256.6697
Mean Anonmoly17.6982
Mean Motion15.63547324
Decay Rate-0.01990498
L11 66815U 25278AA 25354.25003472 -.01990498 00000+0 -23729-1 0 9997
L22 66815 42.9990 206.3458 0001465 256.6697 17.6982 15.63547324 4250



Live tracking and technical data element details for STARLINK-35985 (NORAD 66815). STARLINK-35985 can be tracked NOW for your location showing map with azimuth and elevation plus other details from your city location.







IsCatalogInMostPopularTable: catalog: 66815, numindb: 23
Update: records affected: 1



GetName: 66815 STARLINK-35985

Hit Count: updated at: Sat, 11 Apr 2026 21:20:05 GMT